Location: West Sayville
(40.7279°N, 73.0976°W)
Time: 05:37:26
(UTC+00:00)

USA 307 - Pass Details

Date: 29 October 2020
Orbit: 569 x 579 km, 54.0° (Epoch: 23 November)

Event Time Altitude Azimuth Distance (km) Brightness Sun altitude
Rises 23:28:07 0° 312° (NW) 2,787 7.1 -18.8°
Reaches altitude 10° 23:30:25 10° 317° (NW) 1,884 6.1 -19.2°
Maximum altitude 23:34:38 56° 36° (NE) 685 3.0 -20.0°
Enters shadow 23:35:05 53° 64° (ENE) 710 3.0 -20.1°
